EDT,Max TemperatureF,Mean TemperatureF,Min TemperatureF,Max Dew PointF,MeanDew PointF,Min DewpointF,Max Humidity, Mean Humidity, Min Humidity, Max Sea Level PressureIn, Mean Sea Level PressureIn, Min Sea Level PressureIn, Max VisibilityMiles, Mean VisibilityMiles, Min VisibilityMiles, Max Wind SpeedMPH, Mean Wind SpeedMPH, Max Gust SpeedMPH,PrecipitationIn, CloudCover, Events, WindDirDegrees
2013-3-1,44,38,32,34,30,28,87,71,53,29.92,29.86,29.81,10,10,10,10,5,,0.00,7,,264
2013-3-2,37,35,33,30,28,25,87,73,60,29.92,29.89,29.86,10,10,10,8,2,,0.00,8,,304
2013-3-3,44,35,26,27,22,19,93,57,39,29.96,29.90,29.82,10,10,10,12,5,20,0.00,5,,274
2013-3-4,46,36,26,27,17,14,100,52,29,30.09,30.03,29.96,10,10,10,14,5,20,0.00,1,,269
2013-3-5,50,37,24,41,30,21,100,75,32,30.12,29.98,29.66,10,9,2,13,3,18,0.47,6,Rain-Snow,80
2013-3-6,42,37,32,43,35,32,100,96,87,29.98,29.64,29.44,10,7,0,24,10,39,0.12,7,Rain-Snow-Thunderstorm,282
2013-3-7,48,40,32,32,30,27,93,70,53,30.20,30.11,29.98,10,10,10,21,9,33,0.00,3,,293
2013-3-8,50,41,32,30,27,25,81,61,43,30.26,30.20,30.13,10,10,10,21,8,36,0.00,1,,291
2013-3-9,59,46,32,34,29,23,93,63,27,30.34,30.30,30.26,10,10,10,13,6,17,0.00,0,,316
2013-3-10,64,45,26,41,28,19,100,59,18,30.36,30.30,30.25,10,10,7,10,2,,0.00,0,,110
2013-3-11,68,50,32,50,44,32,100,76,43,30.29,30.13,30.00,10,8,0,16,6,21,0.00,4,Fog,124
2013-3-12,68,59,50,63,53,37,100,80,54,29.99,29.85,29.75,10,9,4,14,9,23,0.46,6,Rain,182
2013-3-13,53,42,32,37,30,21,100,60,35,30.11,30.01,29.94,10,10,5,17,6,28,0.00,3,,272
2013-3-14,50,39,28,21,20,18,74,48,30,30.22,30.14,30.08,10,10,10,15,6,22,0.00,0,,262
2013-3-15,59,42,24,32,26,19,86,51,28,30.16,30.04,29.89,10,10,10,14,3,21,0.00,0,,197
2013-3-16,73,55,37,55,43,32,100,70,36,29.89,29.79,29.61,10,8,0,13,3,24,0.11,4,Fog-Rain-Thunderstorm,174
2013-3-17,53,45,35,54,40,34,100,94,81,30.26,30.09,29.84,10,8,0,12,6,,0.02,7,Fog,6
2013-3-18,42,38,33,43,38,34,100,100,100,30.26,30.13,29.88,10,4,1,8,5,,0.04,8,Rain,6
2013-3-19,64,50,35,45,33,12,100,65,20,30.01,29.87,29.80,10,9,3,17,5,29,0.00,4,,253
2013-3-20,53,42,32,27,16,10,80,36,21,30.11,29.98,29.81,10,10,10,16,4,20,0.00,0,,210
2013-3-21,41,34,28,30,22,10,93,62,33,29.97,29.81,29.73,10,10,2,17,6,28,0.00,4,Snow,282
2013-3-22,50,36,23,25,15,12,80,47,22,30.07,30.00,29.94,10,10,10,16,4,23,0.00,0,,232
2013-3-23,55,40,24,32,26,21,93,66,28,30.08,30.01,29.93,10,10,10,9,1,,0.00,3,,265
2013-3-24,39,34,30,37,33,28,100,95,75,29.97,29.81,29.62,10,8,1,15,3,20,0.60,5,Rain-Snow,13
2013-3-25,42,37,32,36,32,28,100,86,57,29.76,29.61,29.55,10,8,2,22,4,32,0.02,7,Rain-Snow,255
2013-3-26,46,38,30,32,30,27,93,72,53,30.07,29.91,29.77,10,10,10,12,5,21,0.00,4,,262
2013-3-27,51,42,32,30,26,23,87,61,37,30.20,30.13,30.07,10,10,10,15,6,21,0.00,3,,271
2013-3-28,51,42,32,28,26,23,81,58,33,30.28,30.20,30.15,10,10,10,14,5,21,0.00,2,,277
2013-3-29,57,42,28,34,29,23,93,63,33,30.32,30.26,30.19,10,10,10,10,2,18,0.00,5,,271
2013-3-30,62,46,30,36,31,27,100,62,26,30.25,30.19,30.12,10,10,10,10,2,16,0.00,2,,291
2013-3-31,64,53,42,55,48,36,100,87,71,30.15,29.95,29.81,10,9,2,13,5,17,0.33,5,Rain,139